OBJECT C, 60237

Orbit data source: Space-Track

You're viewing an Uncataloged Satellite

Recently launched and/or uncataloged satellites may have evolving metadata. Metadata may include but not limited to: Owner, Maufacturer, Bus, Motor, and Mission.

OBJECT C, 60237 is a satellite in LEO that was launched on Tue, 09 Jul 2024 UTC via an ARIANE 62 launch vehicle from the French Guiana (FRGUI). Unknown objects in Earth's orbit typically refer to objects detected orbiting the Earth but have not yet been identified or cataloged. These objects could be anything from previously untracked satellites, spent rocket stages, debris from satellite collisions, or even natural meteoroids temporarily captured by Earth's gravity.

Loading next visibility...
Identifier
60237, 2024-128C
Orbit
LEO
Country
Flag of TBDTBD
Related business
Flag of SKTechnical University of Kosice (SK)
Manufacturer
TUKE/KONK
Mission
Operational Amateur Astronomy
Bus & Motor
CUBESAT 2U, Unknown motor
Mass
2 kg wet, 2 kg dry
Launch date (UTC)
2024-07-09 (2 years ago)
Launch vehicle
ARIANE 62
Launch site
French Guiana (FRGUI)
Object type
Unknown
Shape & HBR
Box, 0.1 m
Radar Cross Section
0.025 m², Small (<0.1 m²)

Expand to show TLE details & history
Last TLE update: 10 hours ago

TLE from 10 hours ago
0 OBJECT C
1 60237U 24128C   26123.41586804  .00004486  00000-0  31125-3 0  9992
2 60237  61.9919  13.3025 0046292 125.2942 235.2494 15.06277469 99528
Epoch: 2026-05-03T09:58Z
TLE epoch observation values (Epoch: 2026-05-03T09:58:50.998Z)
Latitude
-0.00002°
Longitude
2.27026°
Altitude
567.737 km
Speed
7.568 km/s
True Right ascension
00h 53m 12s
True Declination
0° 00' 00"
Sunlit
Object was in daylight at epoch
Visualization orbit readout
Latitude
Unknown
Longitude
Unknown
Altitude
Unknown
Speed
Unknown
Apparent Right ascension
Unknown
Apparent Declination
Unknown
Sunlit
N/A
Visualization observer readout
Local Sidereal Time
04:03:43
Azimuth
Unknown
Elevation
Unknown
Doppler factor
Unknown
Orbital elements
Apogee altitude
578.571 km
Perigee altitude
514.46 km
Semi-major axis
6,924.652 km
Eccentricity
0.00463
Inclination
61.9919°
RAAN
13.3025°
Arg. of periapsis
125.2942°
True anomaly
234.81498°
Mean anomaly
235.2494°
Eccentric anomaly
235.03205°
Mean motion
3.76657 °/min
Orbital period
95.58 mins
BSTAR
0.00031125
Loading maneuver chart data...
Computing Atmospheric mass density...
Loading historical data...
Loading historical data...
Loading historical data...
Loading historical data...
Loading historical data...
Loading historical data...
Loading historical data...

Documentation

Showing up to 5 results
|